Regional Weather Roundup
Issued by NWS

Home | Current Version | Previous Version | Text Only | Print | Product List | Glossary Off
Versions: 1 2 3 4 5 6 7 8 9 10 11 12 13 14 15 16 17 18 19 20 21 22 23 24 25 26 27 28 29 30 31 32 33 34 35 36 37 38 39 40 41 42 43 44 45 46 47 48 49 50

000
ASUS43 KOAX 251310
RWRNE

WEATHER ROUNDUP FOR NEBRASKA
NATIONAL WEATHER SERVICE OMAHA NE
800 AM CDT THU MAY 25 2017

NOTES: SATELLITE DATA IS BEING USED TO AUGMENT CLOUD COVER ABOVE
       12000 FEET.
       "FAIR" INDICATES FEW OR NO CLOUDS BELOW 12,000 FEET WITH NO
       SIGNIFICANT WEATHER AND/OR OBSTRUCTIONS TO VISIBILITY.

  * THESE STATIONS DO NOT REPORT WEATHER SUCH AS RAIN...SNOW OR FOG.

NEZ001>004-019>022-054>056-251400-
NEBRASKA PANHANDLE

CITY           SKY/WX    TMP DP  RH WIND       PRES   REMARKS
SCOTTSBLUFF    CLOUDY    56  46  69 NW8       29.54R
ALLIANCE       MOSUNNY   54  49  83 NW5       29.51F
CHADRON        CLOUDY    54  49  83 CALM      29.50F
GORDON         FAIR      54  50  86 W3        29.51S
KIMBALL        CLOUDY    54  47  78 NW5       29.57F
SIDNEY         MOSUNNY   59  48  67 W9        29.55S
$$

NEZ057>060-069>072-079>082-251400-
SOUTHWEST NEBRASKA

CITY           SKY/WX    TMP DP  RH WIND       PRES   REMARKS
NORTH PLATTE   MOSUNNY   53  47  79 VRB3      29.52R
IMPERIAL       MOSUNNY   54  47  77 SW6       29.50R
LEXINGTON      MOSUNNY   54  46  73 S15G22    29.53S
MCCOOK         MOSUNNY   51  47  86 SE9       29.50F
OGALLALA       PTSUNNY   53  49  87 CALM      29.52R
$$

NEZ005>010-023>029-035>040-094-251400-
NORTH CENTRAL NEBRASKA

CITY           SKY/WX    TMP DP  RH WIND       PRES   REMARKS
VALENTINE      SUNNY     58  45  62 SW13      29.48R
AINSWORTH      SUNNY     53  46  74 SW15G24   29.48F
BROKEN BOW     MOSUNNY   53  46  77 S15G25    29.52R
O`NEILL        CLOUDY    55  43  63 S17G24    29.52R
ORD            SUNNY     56  43  61 S17G23    29.54R
THEDFORD       CLOUDY    54  46  73 SW13      29.54R
$$

NEZ041-046>049-061>064-073>077-083>087-251400-
SOUTH CENTRAL NEBRASKA

CITY           SKY/WX    TMP DP  RH WIND       PRES   REMARKS
GRAND ISLAND   SUNNY     56  45  66 S18G25    29.57F
AURORA         SUNNY     55  44  66 S17G25    29.58F
HASTINGS       SUNNY     55  43  63 S14G23    29.58F
HEBRON         SUNNY     57  46  67 S10G17    29.63R
HOLDREGE       SUNNY     52  43  70 S20G28    29.54F
KEARNEY *      CLOUDY    54  43  66 S16G22    29.56S
YORK           CLOUDY    55  45  67 S15G22    29.60F
$$

NEZ011>018-030>034-042>045-251400-
NORTHEAST NEBRASKA

CITY           SKY/WX    TMP DP  RH WIND       PRES   REMARKS
NORFOLK        CLOUDY    55  44  66 SE14      29.58F
ALBION         CLOUDY    58  44  59 S15G22    29.58S
BLAIR          SUNNY     57  49  75 S13       29.66S
FREMONT        MOSUNNY   56  46  69 SE12      29.65S
TEKAMAH        SUNNY     56  50  80 SE15      29.66R
WAYNE          MOSUNNY   56  47  70 S18       29.61S
$$

NEZ050>053-065>068-078-088>093-251400-
SOUTHEAST NEBRASKA

CITY           SKY/WX    TMP DP  RH WIND       PRES   REMARKS
LINCOLN        CLOUDY    55  49  80 S9        29.63F
OMAHA EPPLEY   MOSUNNY   57  49  74 S10       29.67R
BEATRICE       MOSUNNY   57  48  73 S12       29.64F
FALLS CITY     SUNNY     56  50  80 S7        29.68R
NEBRASKA CITY  SUNNY     57  49  74 S13       29.67F
PLATTSMOUTH    SUNNY     57  50  77 SE7G16    29.67S
$$

NEZ044-045-051>053-067-251400-
OMAHA AREA

CITY           SKY/WX    TMP DP  RH WIND       PRES   REMARKS
OMAHA EPPLEY   MOSUNNY   57  49  74 S10       29.67R
BLAIR          SUNNY     57  49  75 S13       29.66S
FREMONT        MOSUNNY   56  46  69 SE12      29.65S
MILLARD        MOSUNNY   59  52  76 SE10      29.67R
OFFUTT AFB     MOSUNNY   55  49  80 SE5       29.67R
PLATTSMOUTH    SUNNY     57  50  77 SE7G16    29.67S
WAHOO          FAIR      56  47  74 SE10      29.64F
$$




USA.gov is the U.S. government's official web portal to all federal, state and local government web resources and services.